Vertical_Velocity
-2 -2 -1 -1 -1 -4 -4 -4 -3 -3 -3 1 1 -4 -2 -6 -4 -1 1 -2 2 -0 -1 -2 2 1 -1 6 1 -1 13 1 5 9 -6 -3 -0 2 0 2 1 -1 1
-2 -2 -2 -3 -3 -3 -3 -4 -2 -1 -2 -3 -0 -1 -1 -2 -1 -3 -1 -1 -0 1 1 1 -0 -0 -1 -1 -0 2 0 4 4 -16 2 2 -2 -2 2 -1 3 -1 -0
-2 -2 -0 -1 -3 -2 -2 -4 -2 -3 -4 -3 -1 -0 3 -0 -2 2 0 -1 -1 0 1 1 1 0 -1 0 1 4 5 6 1 -3 -8 -11 -4 3 4 2 0 1 -2
-2 -1 -3 -0 -2 -3 -4 -4 -4 -4 -1 -2 -1 -1 -2 0 2 1 -0 2 1 -0 0 -0 2 1 4 -1 1 -4 -8 16 1 -2 5 1 0 -4 2 -0 -2 -1 -1
-2 -5 -4 -3 -1 -1 -3 -2 -3 -3 -4 -2 -4 -2 -0 3 3 -1 1 -0 2 -1 2 -1 2 0 2 5 4 -10 -5 -4 7 9 -1 -4 -5 -0 1 1 0 -1 -4
-5 -2 -0 -0 -1 -3 -2 -2 -1 -1 -2 -5 -1 -1 -1 3 2 3 0 1 4 0 -1 0 0 2 0 -2 -2 6 3 5 4 -1 4 0 3 4 -0 1 0 -5 -3
-5 -2 -1 1 -1 -0 -0 -2 -2 0 -2 -5 -2 -1 -1 -2 -0 4 1 1 5 -2 4 0 -1 1 4 3 -6 -1 11 9 -5 2 6 3 10 3 -2 3 3 -1 1
-2 -1 -4 -3 -4 -5 -1 -1 -5 -6 -5 -2 -0 -1 0 2 -1 3 1 3 -0 9 7 4 1 2 4 2 5 7 -3 1 -1 12 1 4 4 -1 7 11 -2 4 1
-3 -6 -2 -4 -5 -4 -1 -1 0 2 -0 -2 -5 -6 -2 -0 2 2 2 -2 6 3 5 2 0 1 2 -5 -4 -1 2 6 3 2 2 5 -2 5 -1 7 7 2 -2
-1 -3 -5 -4 -4 -2 0 0 -2 -1 2 3 -1 0 -3 -5 -6 -3 2 -0 10 -1 2 5 1 -2 0 1 11 1 -8 2 -3 10 4 4 1 2 3 6 2 1 4
-1 -4 -6 -3 -0 -1 3 4 -3 -1 -2 2 2 -0 -3 -1 -1 -2 4 3 5 2 2 4 3 0 -0 2 2 8 3 -4 1 -2 1 3 2 -1 1 7 1 -11 14
-3 -5 -5 -1 -2 2 -0 0 1 2 0 2 -0 3 -2 -3 4 -1 1 5 0 6 3 8 -1 3 0 6 1 14 10 -3 6 8 1 5 -4 4 1 9 1 6 8
-3 -3 -3 -1 -3 1 -2 -2 -1 -0 1 -0 2 -0 -0 -2 18 -0 -2 12 1 -1 6 3 0 3 -1 -1 14 -6 1 3 0 -0 6 1 -7 6 3 4 6 -7 3
-5 -4 -2 -1 -2 1 -3 -4 -4 -0 1 3 -4 3 -2 0 1 -0 8 9 2 1 10 -1 1 1 -0 -6 13 -2 -1 -1 -1 8 -0 -1 -3 10 7 -1 4 -8 2
-3 -2 -5 -1 -2 1 -0 -6 -1 2 1 2 1 -2 1 -0 0 1 13 11 -0 4 5 1 4 -2 0 -4 3 7 4 -1 -1 5 -6 1 2 4 3 -1 -9 -8 11
-3 -4 -1 2 -1 1 -1 -4 0 0 1 8 -2 -3 4 -3 -0 0 -0 -4 -10 -6 1 2 2 -3 -1 2 -1 -3 5 -3 -5 0 0 1 3 -3 2 0 1 -4 8
-6 -4 1 -2 -1 4 -0 -5 -1 -0 0 11 -2 -3 -1 -2 1 -0 7 -5 -5 1 18 1 3 2 4 -2 0 3 1 2 2 2 -1 1 15 -4 8 -2 1 3 6
-4 -1 2 1 -0 1 -1 -3 -1 0 1 12 1 -0 3 -1 5 -2 -0 -3 -4 7 -0 3 2 -2 -5 2 7 4 -0 -2 2 1 2 0 4 0 2 7 4 2 -2
-2 -2 -2 0 1 1 -2 -2 1 6 -1 11 10 1 1 5 4 1 1 -3 -1 -1 4 3 -0 -2 1 2 0 -1 -4 2 4 3 1 4 10 3 1 5 -8 -15 -1
-3 -2 1 0 0 1 -1 -2 -2 -2 1 0 1 1 -1 1 -2 2 -1 1 0 2 -1 1 1 10 12 1 2 4 5 3 6 7 5 6 11 6 -0 -15 -1 -2 -1
-3 -2 1 2 -1 -0 -2 -4 -1 2 1 1 -0 -1 -2 -3 -0 2 3 3 1 3 7 11 3 3 -2 2 3 3 5 9 7 11 -3 5 -6 -11 -0 1 -2 2 -0
-2 -1 0 2 -1 -2 -3 -3 -2 3 0 2 3 1 2 0 -2 0 1 5 4 3 2 5 2 1 1 -1 -1 0 -1 1 -1 -7 -4 -0 -4 -2 -2 2 2 -3 -4
-2 1 -1 -1 1 -2 -3 -4 -1 0 0 0 2 1 -1 1 1 -1 -1 -1 2 6 1 -0 -0 -3 -4 -2 -3 -2 -1 -3 5 -3 -3 0 2 3 2 0 -1 -0 -3
-3 -0 2 -1 2 -3 -2 -2 -1 -0 -2 -1 -4 -5 -2 -3 -0 2 5 5 -2 -3 -3 -3 -0 1 1 -3 -2 2 5 -0 -3 -2 -0 0 -1 -2 -1 -2 -3 -3 -1
-2 -0 1 -1 1 -2 -4 -1 1 -1 -1 0 -0 -2 0 0 -3 -4 -1 3 2 1 3 -2 -2 1 2 3 4 0 -4 -3 -2 1 0 0 1 0 -1 -2 -1 2 2
-1 -0 -1 -1 2 -1 -1 -1 -1 1 1 0 1 -1 -1 -2 -0 1 -1 -4 -3 -0 3 2 3 3 -1 -3 -3 1 2 1 0 2 1 1 1 0 1 -1 -2 -2 -0
Height
3090 3089 3087 3085 3083 3080 3078 3076 3073 3071 3069 3067 3065 3064 3063 3061 3061 3061 3061 3061 3063 3064 3065 3067 3071 3075 3079 3084 3087 3090 3093 3096 3098 3101 3104 3106 3109 3112 3114 3115 3117 3119 3122
3087 3085 3082 3079 3077 3074 3071 3068 3065 3062 3059 3057 3054 3051 3051 3051 3051 3052 3054 3054 3055 3057 3058 3058 3062 3066 3072 3075 3080 3084 3087 3089 3091 3094 3099 3100 3104 3106 3108 3109 3112 3114 3117
3083 3080 3077 3074 3070 3067 3062 3058 3055 3053 3049 3043 3039 3037 3036 3037 3038 3040 3045 3048 3048 3049 3050 3052 3054 3057 3062 3067 3071 3076 3079 3083 3084 3089 3090 3093 3096 3102 3101 3104 3107 3108 3111
3077 3074 3070 3065 3060 3056 3051 3047 3043 3040 3036 3031 3027 3024 3022 3021 3023 3027 3033 3037 3040 3040 3042 3044 3047 3050 3053 3057 3063 3069 3074 3075 3079 3083 3085 3088 3089 3093 3097 3098 3101 3103 3105
3071 3066 3061 3055 3050 3045 3040 3035 3031 3028 3024 3019 3015 3011 3008 3009 3011 3012 3017 3024 3030 3032 3034 3037 3040 3043 3047 3051 3055 3061 3066 3073 3072 3076 3080 3083 3089 3090 3093 3094 3097 3098 3101
3063 3058 3053 3047 3040 3034 3028 3023 3019 3015 3011 3007 3003 2999 2997 2997 2999 3001 3004 3012 3019 3024 3028 3030 3033 3036 3040 3044 3049 3055 3060 3064 3068 3070 3074 3077 3082 3085 3089 3091 3091 3092 3095
3055 3049 3044 3036 3030 3022 3016 3012 3008 3004 3001 2997 2993 2990 2988 2987 2987 2990 2992 2999 3009 3015 3021 3025 3027 3030 3034 3039 3043 3049 3053 3057 3063 3065 3069 3071 3074 3076 3081 3083 3086 3089 3089
3048 3043 3035 3028 3020 3011 3004 3000 2999 2997 2993 2989 2985 2982 2980 2978 2977 2979 2982 2987 2998 3008 3015 3019 3022 3025 3028 3033 3039 3043 3048 3053 3057 3060 3064 3065 3068 3071 3074 3076 3080 3082 3085
3042 3034 3027 3021 3013 3005 2999 2996 2992 2988 2986 2982 2978 2973 2970 2968 2967 2968 2972 2976 2988 2998 3006 3012 3016 3020 3023 3028 3034 3038 3042 3047 3051 3054 3058 3059 3063 3066 3069 3070 3074 3079 3081
3033 3026 3019 3012 3004 2997 2993 2991 2987 2981 2976 2973 2969 2967 2962 2959 2958 2958 2962 2967 2977 2988 2998 3005 3010 3014 3017 3023 3026 3032 3037 3041 3045 3050 3053 3055 3057 3061 3064 3067 3068 3072 3076
3026 3019 3012 3004 2996 2989 2986 2983 2980 2975 2971 2968 2964 2960 2955 2950 2950 2951 2955 2961 2967 2977 2989 2997 3004 3010 3014 3018 3023 3028 3032 3036 3041 3045 3048 3050 3052 3055 3060 3063 3065 3067 3069
3020 3012 3005 2995 2987 2981 2979 2975 2972 2969 2965 2962 2957 2955 2952 2945 2945 2947 2950 2954 2960 2968 2980 2991 2998 3004 3009 3014 3017 3022 3027 3032 3036 3038 3042 3044 3045 3050 3054 3058 3061 3063 3064
3015 3007 2999 2989 2980 2976 2973 2970 2966 2961 2958 2956 2951 2951 2948 2943 2942 2945 2949 2952 2957 2962 2975 2985 2994 2999 3003 3009 3014 3018 3024 3027 3031 3034 3037 3039 3042 3046 3052 3056 3057 3061 3062
3009 3001 2993 2984 2978 2972 2969 2965 2961 2955 2952 2950 2949 2948 2945 2942 2943 2944 2946 2950 2955 2964 2973 2983 2989 2994 3001 3005 3010 3015 3019 3023 3026 3030 3032 3036 3041 3044 3049 3051 3054 3057 3061
3005 2996 2987 2979 2975 2969 2966 2962 2955 2950 2946 2946 2948 2946 2945 2944 2944 2945 2945 2949 2958 2966 2974 2981 2987 2991 2997 3003 3006 3010 3015 3018 3022 3025 3028 3034 3039 3042 3046 3050 3052 3055 3057
3000 2992 2983 2976 2972 2967 2962 2957 2953 2947 2944 2945 2947 2947 2947 2947 2946 2949 2953 2956 2961 2966 2972 2978 2982 2990 2995 3000 3004 3008 3012 3014 3018 3023 3028 3032 3037 3040 3044 3047 3051 3054 3055
2996 2988 2980 2973 2970 2965 2960 2955 2951 2947 2945 2945 2947 2948 2950 2951 2952 2953 2956 2959 2963 2967 2971 2978 2984 2988 2993 2998 3001 3005 3010 3015 3019 3024 3029 3032 3035 3039 3043 3046 3049 3052 3052
2993 2985 2977 2972 2968 2964 2959 2953 2950 2948 2946 2946 2948 2950 2951 2953 2955 2956 2959 2962 2965 2969 2973 2978 2982 2987 2991 2996 2999 3003 3009 3014 3018 3023 3028 3032 3035 3039 3042 3045 3047 3048 3048
2991 2983 2976 2971 2968 2963 2958 2954 2950 2949 2947 2949 2950 2952 2953 2955 2956 2959 2961 2964 2967 2971 2974 2979 2983 2986 2990 2994 2999 3005 3010 3015 3019 3023 3027 3031 3036 3039 3041 3041 3044 3046 3046
2989 2982 2976 2972 2968 2963 2959 2955 2952 2950 2949 2949 2949 2952 2954 2957 2959 2960 2963 2966 2969 2972 2975 2979 2982 2987 2991 2996 3002 3007 3012 3017 3021 3024 3027 3031 3035 3035 3037 3040 3042 3043 3043
2987 2982 2976 2973 2969 2964 2961 2957 2954 2951 2949 2949 2950 2952 2955 2959 2961 2963 2964 2967 2970 2973 2976 2979 2982 2987 2993 2999 3003 3007 3013 3018 3021 3024 3026 3030 3032 3035 3038 3038 3039 3038 3038
2985 2981 2976 2973 2970 2966 2963 2961 2957 2954 2952 2951 2952 2954 2956 2959 2961 2964 2966 2969 2972 2976 2979 2983 2985 2989 2994 2999 3003 3006 3012 3016 3019 3023 3026 3029 3032 3034 3034 3035 3035 3034 3033
2984 2980 2976 2974 2971 2969 2966 2963 2961 2957 2955 2955 2956 2957 2959 2961 2964 2967 2970 2972 2976 2979 2981 2985 2989 2993 2997 3002 3005 3008 3012 3016 3021 3023 3026 3028 3030 3031 3032 3033 3032 3030 3028
2982 2980 2977 2974 2971 2970 2968 2966 2964 2962 2960 2960 2962 2962 2964 2966 2968 2972 2975 2977 2978 2981 2985 2989 2994 2997 3001 3004 3007 3010 3014 3016 3019 3023 3025 3027 3029 3030 3029 3027 3026 3023 3020
2981 2980 2977 2976 2973 2972 2969 2968 2967 2966 2966 2966 2967 2968 2970 2971 2973 2975 2978 2981 2984 2987 2991 2994 2997 3001 3004 3007 3010 3012 3015 3018 3021 3023 3025 3026 3025 3024 3023 3021 3019 3017 3014
2980 2979 2977 2976 2974 2973 2972 2970 2969 2969 2970 2970 2971 2972 2974 2975 2977 2979 2981 2983 2987 2991 2994 2997 2999 3001 3004 3007 3010 3014 3016 3019 3021 3022 3022 3021 3021 3019 3018 3016 3014 3010 3007